Voltar ao catálogo

CZ-2C R/B

AtivoPO
NORAD 43610·ROCKET BODY·🇨🇳 China

Lançado Sep 7, 2018 de Taiyuan Satellite Launch Center

Loading…

Próximas Passagens (próximas 24 horas)

TLE

AtualizadoSource: Space-Track

Época: Sep 14, 2026, 08:09 UTC

1 43610U 18068B   26257.33975779  .00000161  00000-0  45775-4 0  9999
2 43610  98.7093 106.6909 0087609  77.1926 283.9042 14.56657516425875

Acompanhe CZ-2C R/B em tempo real com AllMySat

Download on the App Store